Overview Statistics Trail Chart Weather Telemetry Raw packets
 

This is the latest recevied weather packets stored in our database for station/object M0JUI-1. If no packets are shown the sender has not sent any weather packets the latest 10 day(s).

<< 17 18 19 20 21 22 23 >>
Time Temp. Humidity Pressure Rain* Wind** Luminosity Snow
1788518519 15.56° C 1% 1012 hPa 0 mm - 199 W/m² -
1788518217 15.56° C 1% 1011.9 hPa 0 mm - 262 W/m² -
1788517917 15.56° C 1% 1012 hPa 0 mm - 247 W/m² -
1788517617 15.56° C 1% 1011.9 hPa 0 mm - 205 W/m² -
1788517317 15.56° C 1% 1012 hPa 0 mm - 232 W/m² -
1788517017 15.56° C 1% 1012 hPa 0 mm - 262 W/m² -
1788516705 15.56° C 1% 1011.6 hPa 0 mm - 223 W/m² -
1788516405 15° C 1% 1011.6 hPa 0 mm - 203 W/m² -
1788516105 15° C 1% 1011.6 hPa 0 mm - 172 W/m² -
1788515793 15° C 1% 1011.5 hPa 0 mm - 154 W/m² -
1788515493 15.56° C 1% 1011.6 hPa 0 mm - 160 W/m² -
1788515193 15.56° C 1% 1011.5 hPa 0 mm - 191 W/m² -
1788514881 15.56° C 1% 1011.3 hPa 0 mm - 219 W/m² -
1788514581 15.56° C 1% 1011.3 hPa 0 mm - 200 W/m² -
1788514281 15.56° C 1% 1011.3 hPa 0 mm - 198 W/m² -
1788513969 15.56° C 99% 1011.1 hPa 0 mm - 232 W/m² -
1788513670 16.11° C 99% 1010.8 hPa 0 mm - 243 W/m² -
1788513369 15.56° C 99% 1010.6 hPa 0 mm - 500 W/m² -
1788513069 15.56° C 99% 1010.8 hPa 0 mm - 303 W/m² -
1788512769 15° C 1% 1010.7 hPa 0 mm - 331 W/m² -
1788512469 14.44° C 1% 1010.7 hPa 0 mm - 301 W/m² -
1788512169 14.44° C 1% 1010.7 hPa 0 mm - 138 W/m² -
1788511869 14.44° C 1% 1010.7 hPa 0 mm - 128 W/m² -
1788511570 14.44° C 1% 1010.4 hPa 0 mm - 57 W/m² -
1788511270 14.44° C 1% 1010.6 hPa 0 mm - 48 W/m² -

* Rain latest hour (hover to see other rain measurements)
** Current wind speed in m/s (hover to see current wind gust speed)